SA3PJN-WX Weather Reports


time (UTC)temp
F
wind
direction
speed
knots
gust
knots
rain 1hr
in
rain 24hr
in
rain mn
in
humidity
%
barometer
mb
20260906114031 57 187 4.3 17.4 0.00 0.00 0.00 74 967.5
20260906113531 58 75 4.3 17.4 0.00 0.00 0.00 75 967.8
20260906113031 59 120 4.3 14.8 0.00 0.00 0.00 74 967.5
20260906112531 59 116 4.3 10.4 0.00 0.00 0.00 73 967.7
20260906112031 57 170 3.5 10.4 0.00 0.00 0.00 76 967.7
20260906111531 58 122 3.5 9.6 0.00 0.00 0.00 75 967.6
20260906111031 58 158 3.5 13.0 0.00 0.00 0.00 78 967.5
20260906110531 57 100 4.3 14.8 0.00 0.00 0.00 79 967.3
20260906110031 56 207 4.3 14.8 0.00 0.00 0.00 79 967.3
20260906105531 56 251 4.3 13.0 0.00 0.00 0.00 81 967.4
20260906105031 57 154 5.2 14.8 0.00 0.00 0.00 79 967.3
20260906104531 58 153 5.2 14.8 0.00 0.00 0.00 77 967.2
20260906104031 58 61 4.3 14.8 0.00 0.00 0.00 75 967.1
20260906103531 60 92 3.5 11.3 0.00 0.00 0.00 72 967.2
20260906103031 59 145 3.5 11.3 0.00 0.00 0.00 76 967.1
20260906102530 62 139 2.6 12.2 0.00 0.00 0.00 75 967.1
20260906102030 61 132 2.6 12.2 0.00 0.00 0.00 78 967.1
20260906101530 60 126 2.6 11.3 0.00 0.00 0.00 82 967.2
20260906101030 59 155 3.5 8.7 0.00 0.00 0.00 81 967.0
20260906100530 58 125 2.6 9.6 0.00 0.00 0.00 84 967.1
20260906100030 57 118 2.6 9.6 0.00 0.00 0.00 91 967.1
20260906095530 54 56 2.6 9.6 0.00 0.00 0.00 97 967.1
20260906095030 53 159 2.6 13.0 0.00 0.00 0.00 97 967.1
20260906094530 53 126 4.3 13.0 0.00 0.00 0.00 96 967.0
20260906094030 54 103 4.3 13.0 0.00 0.00 0.00 91 967.0
20260906093530 56 169 4.3 11.3 0.00 0.00 0.00 80 967.0
20260906093030 57 236 4.3 10.4 0.00 0.00 0.00 75 967.0
20260906092530 58 188 3.5 9.6 0.00 0.00 0.00 77 966.9
20260906092030 57 203 3.5 9.6 0.00 0.00 0.00 77 966.7
20260906091529 56 213 3.5 9.6 0.00 0.00 0.00 78 966.8
20260906091029 57 136 3.5 9.6 0.00 0.00 0.00 77 967.0
20260906090529 57 111 3.5 11.3 0.00 0.00 0.00 78 966.9
20260906090029 57 245 3.5 11.3 0.00 0.00 0.00 77 966.8
20260906085529 57 113 3.5 11.3 0.00 0.00 0.00 77 966.9
20260906085029 57 185 3.5 11.3 0.00 0.00 0.00 77 966.9
20260906084529 58 184 3.5 13.9 0.00 0.00 0.00 76 966.9
20260906084029 59 173 3.5 13.9 0.00 0.00 0.00 77 966.8
20260906083529 60 144 3.5 9.6 0.00 0.00 0.00 79 966.9
20260906083029 58 132 3.5 9.6 0.00 0.00 0.00 80 966.8
20260906082529 56 119 3.5 11.3 0.00 0.00 0.00 82 966.7
20260906082029 56 168 4.3 12.2 0.00 0.00 0.00 80 966.6
20260906081528 57 143 3.5 12.2 0.00 0.00 0.00 81 966.6
20260906081028 57 202 3.5 12.2 0.00 0.00 0.00 81 966.6
20260906080528 56 139 4.3 13.0 0.00 0.00 0.00 82 966.4
20260906080028 57 150 4.3 13.0 0.00 0.00 0.00 83 966.4
20260906075528 57 59 3.5 11.3 0.00 0.00 0.00 82 966.5
20260906075028 57 101 3.5 10.4 0.00 0.00 0.00 83 966.5
20260906074528 55 89 2.6 9.6 0.00 0.00 0.00 84 966.5
20260906074028 55 217 2.6 9.6 0.00 0.00 0.00 86 966.5
20260906073528 55 166 2.6 7.8 0.00 0.00 0.00 85 966.5
20260906073028 54 129 2.6 9.6 0.00 0.00 0.00 87 966.5
20260906072528 54 64 2.6 9.6 0.00 0.00 0.00 87 966.4
20260906072028 53 103 2.6 8.7 0.00 0.00 0.00 87 966.3
20260906071528 53 292 2.6 8.7 0.00 0.00 0.00 87 966.3
20260906071028 53 69 2.6 9.6 0.00 0.00 0.00 88 966.3
20260906070528 53 103 3.5 16.5 0.00 0.00 0.00 89 966.2
20260906070027 53 141 3.5 16.5 0.00 0.00 0.00 87 966.3
20260906065527 54 168 3.5 9.6 0.00 0.00 0.00 86 966.1
20260906065027 54 204 3.5 9.6 0.00 0.00 0.00 85 966.1
20260906064527 54 73 3.5 10.4 0.00 0.00 0.00 85 966.0
20260906064027 55 158 3.5 10.4 0.00 0.00 0.00 82 965.9
20260906063527 58 161 3.5 10.4 0.00 0.00 0.00 81 966.0
20260906063027 56 209 3.5 13.9 0.00 0.00 0.00 81 965.9
20260906062527 56 114 3.5 13.9 0.00 0.00 0.00 84 965.8
20260906062027 56 110 3.5 9.6 0.00 0.00 0.00 83 965.9
20260906061527 56 176 2.6 8.7 0.00 0.00 0.00 83 965.8
20260906061027 56 149 2.6 9.6 0.00 0.00 0.00 84 965.7
20260906060527 56 93 2.6 9.6 0.00 0.00 0.00 84 965.7
20260906060027 56 84 2.6 8.7 0.00 0.00 0.00 85 965.6
20260906055527 55 268 2.6 7.8 0.00 0.00 0.00 86 965.5
20260906055027 53 126 2.6 12.2 0.00 0.00 0.00 89 965.5
20260906054526 54 237 2.6 12.2 0.00 0.00 0.00 87 965.4
20260906054026 54 87 2.6 7.0 0.00 0.00 0.00 88 965.4
20260906053526 53 220 2.6 7.0 0.00 0.00 0.00 89 965.4
20260906053026 53 93 2.6 7.8 0.00 0.00 0.00 92 965.4
20260906052526 51 178 3.5 8.7 0.00 0.00 0.00 95 965.4
20260906052026 49 144 3.5 12.2 0.00 0.00 0.00 97 965.4
20260906051526 50 195 4.3 12.2 0.00 0.00 0.00 95 965.5
20260906051026 51 235 4.3 11.3 0.00 0.00 0.00 94 965.6
20260906050526 51 172 3.5 9.6 0.00 0.00 0.00 94 965.4
20260906050026 51 159 3.5 10.4 0.00 0.00 0.00 96 965.4
20260906045526 50 105 3.5 12.2 0.00 0.00 0.00 98 965.3
20260906045026 48 157 3.5 12.2 0.00 0.00 0.00 99 965.3
20260906044526 47 269 3.5 9.6 0.00 0.00 0.00 99 965.2
20260906044026 47 223 2.6 8.7 0.00 0.00 0.00 10 965.2
20260906043526 47 196 1.7 8.7 0.00 0.00 0.00 10 965.3
20260906043025 47 62 1.7 7.8 0.00 0.00 0.00 10 965.3
20260906042525 47 216 1.7 7.8 0.00 0.00 0.00 10 965.2
20260906042025 47 61 1.7 6.1 0.00 0.00 0.00 10 965.3
20260906041525 47 74 1.7 5.2 0.00 0.00 0.00 10 965.2
20260906041025 47 322 1.7 4.3 0.00 0.00 0.00 10 965.1
20260906040525 47 211 1.7 8.7 0.00 0.00 0.00 10 964.9
20260906040025 47 121 2.6 8.7 0.00 0.00 0.00 10 964.9
20260906035525 47 42 2.6 8.7 0.00 0.00 0.00 10 964.8
20260906034955 47 147 2.6 8.7 0.00 0.00 0.00 10 964.8
20260906034455 47 154 2.6 8.7 0.00 0.00 0.00 10 964.7
20260906033955 47 192 2.6 8.7 0.00 0.00 0.00 10 964.7
20260906033455 47 26 2.6 7.8 0.00 0.00 0.00 10 964.8
20260906032955 47 106 2.6 11.3 0.00 0.00 0.00 10 964.7
20260906032455 47 267 2.6 11.3 0.00 0.00 0.00 10 964.7
20260906031955 47 99 2.6 8.7 0.00 0.00 0.00 10 964.7
20260906031455 47 205 2.6 8.7 0.00 0.00 0.00 10 964.8
20260906030955 47 75 2.6 7.8 0.00 0.00 0.00 10 964.8
20260906030455 46 84 2.6 7.8 0.00 0.00 0.00 10 964.8
20260906025954 47 45 2.6 7.0 0.00 0.00 0.00 10 964.6
20260906025454 47 168 1.7 7.0 0.00 0.00 0.00 10 964.6
20260906024954 46 190 1.7 7.0 0.00 0.00 0.00 10 964.6
20260906024454 47 188 1.7 6.1 0.00 0.00 0.00 99 964.5
20260906023954 47 90 1.7 6.1 0.00 0.00 0.00 99 964.5
20260906023454 47 39 1.7 5.2 0.00 0.00 0.00 99 964.4
20260906022954 47 91 2.6 7.8 0.00 0.00 0.00 99 964.5
20260906022454 47 105 2.6 8.7 0.00 0.00 0.00 99 964.5
20260906021954 47 184 2.6 8.7 0.00 0.00 0.00 99 964.2
20260906021454 48 229 2.6 12.2 0.00 0.00 0.00 99 964.1
20260906020954 48 210 2.6 12.2 0.00 0.00 0.00 99 964.0
20260906020454 48 245 2.6 7.8 0.00 0.00 0.00 99 964.1
20260906015954 48 144 1.7 7.0 0.00 0.00 0.00 10 964.1
20260906015454 48 19 1.7 7.0 0.00 0.00 0.00 10 964.1
20260906014953 48 260 1.7 5.2 0.00 0.00 0.00 10 964.0
20260906014453 48 248 1.7 6.1 0.00 0.00 0.00 10 964.0
20260906013953 47 173 1.7 7.8 0.00 0.00 0.00 10 964.0
20260906013453 47 108 1.7 7.8 0.00 0.00 0.00 10 964.0
20260906012953 47 27 1.7 6.1 0.00 0.00 0.00 10 964.0
20260906012453 47 97 1.7 7.8 0.00 0.00 0.00 10 964.0
20260906011953 47 102 1.7 7.8 0.00 0.00 0.00 10 964.0
20260906011453 47 92 1.7 7.0 0.00 0.00 0.00 10 963.9
20260906010953 48 90 1.7 7.8 0.00 0.00 0.00 10 963.9
20260906010453 48 29 2.6 9.6 0.00 0.00 0.00 10 963.8
20260906005953 48 114 2.6 9.6 0.00 0.00 0.00 99 963.9
20260906005453 48 120 2.6 9.6 0.00 0.00 0.00 99 963.9
20260906004953 48 89 1.7 7.0 0.00 0.00 0.00 10 963.8
20260906004453 49 240 2.6 9.6 0.00 0.00 0.00 99 963.9
20260906003953 49 84 2.6 9.6 0.00 0.00 0.00 10 963.8
20260906003453 49 136 2.6 9.6 0.00 0.00 0.00 10 963.7
20260906002953 49 142 2.6 8.7 0.00 0.00 0.00 10 963.6
20260906002453 49 183 2.6 9.6 0.00 0.00 0.00 10 963.6
20260906001952 49 247 2.6 9.6 0.00 0.00 0.00 10 963.5
20260906001452 49 87 2.6 7.8 0.00 0.00 0.00 10 963.5
20260906000952 49 171 2.6 7.8 0.00 0.00 0.00 10 963.6
20260906000452 49 159 2.6 9.6 0.00 0.00 0.00 10 963.5
20260905235952 49 133 3.5 11.3 0.00 0.00 0.00 99 963.4
20260905235452 49 160 3.5 11.3 0.00 0.00 0.00 99 963.3
20260905234952 49 237 2.6 10.4 0.00 0.00 0.00 10 963.2
20260905234452 49 212 2.6 10.4 0.00 0.00 0.00 10 963.1
20260905233952 49 87 2.6 8.7 0.00 0.00 0.00 10 963.1
20260905233422 49 81 2.6 9.6 0.00 0.00 0.00 10 963.0
20260905232922 49 79 2.6 10.4 0.00 0.00 0.00 10 963.1
20260905232422 49 63 2.6 10.4 0.00 0.00 0.00 10 963.0
20260905231922 49 156 2.6 10.4 0.00 0.00 0.00 10 963.0
20260905231421 49 105 2.6 7.8 0.00 0.00 0.00 10 962.8
20260905230921 49 66 2.6 8.7 0.00 0.00 0.00 99 962.8
20260905230421 50 275 2.6 8.7 0.00 0.00 0.00 99 962.8
20260905225921 50 103 2.6 7.8 0.00 0.00 0.00 99 962.7
20260905225421 50 165 2.6 7.8 0.00 0.00 0.00 99 962.6
20260905224921 50 128 2.6 7.8 0.00 0.00 0.00 99 962.6
20260905224421 50 144 2.6 9.6 0.00 0.00 0.00 99 962.5
20260905223921 50 4 3.5 10.4 0.00 0.00 0.00 98 962.5
20260905223421 51 227 3.5 10.4 0.00 0.00 0.00 98 962.4
20260905222921 51 159 4.3 10.4 0.00 0.00 0.00 98 962.4
20260905222421 51 221 4.3 10.4 0.00 0.00 0.00 98 962.2
20260905221921 51 99 3.5 9.6 0.00 0.00 0.00 98 962.2
20260905221421 51 189 3.5 10.4 0.00 0.00 0.00 98 962.2
20260905220921 51 233 4.3 10.4 0.00 0.00 0.00 98 962.0
20260905220420 51 237 4.3 10.4 0.00 0.00 0.00 98 962.0
20260905215920 51 223 3.5 12.2 0.00 0.00 0.00 99 961.8
20260905215420 51 202 3.5 12.2 0.00 0.00 0.00 99 961.8
20260905214920 51 258 3.5 8.7 0.00 0.00 0.00 10 961.8
20260905214420 52 222 3.5 8.7 0.00 0.00 0.00 99 961.8
20260905213920 52 201 2.6 8.7 0.00 0.00 0.00 99 961.7
20260905213420 52 326 1.7 8.7 0.00 0.00 0.00 99 961.6
20260905212850 51 74 1.7 5.2 0.00 0.00 0.00 99 961.5
20260905212350 51 78 1.7 5.2 0.00 0.00 0.00 99 961.4
20260905211850 51 228 1.7 7.0 0.00 0.00 0.00 98 961.4
20260905211350 51 90 1.7 7.0 0.00 0.00 0.00 99 961.4
20260905210850 51 127 1.7 6.1 0.00 0.00 0.00 99 961.3
20260905210350 51 70 1.7 6.1 0.00 0.00 0.00 98 961.2
20260905205850 51 107 1.7 4.3 0.00 0.00 0.00 98 961.0
20260905205350 51 90 1.7 7.8 0.00 0.00 0.00 98 960.9
20260905204849 51 32 2.6 7.8 0.00 0.00 0.00 98 960.9
20260905204349 51 94 2.6 7.0 0.00 0.00 0.00 98 961.0
20260905203849 51 112 2.6 6.1 0.00 0.00 0.00 98 961.0
20260905203349 52 233 1.7 6.1 0.00 0.00 0.00 98 960.9
20260905202849 52 123 1.7 6.1 0.00 0.00 0.00 98 960.9
20260905202349 52 83 1.7 7.8 0.00 0.00 0.00 98 960.9
20260905201849 52 311 1.7 7.8 0.00 0.00 0.00 98 960.7
20260905201349 52 251 1.7 7.8 0.00 0.00 0.00 98 960.7
20260905200849 52 273 1.7 5.2 0.00 0.00 0.00 98 960.7
20260905200349 52 182 2.6 6.1 0.00 0.00 0.00 98 960.7
20260905195849 52 236 3.5 6.1 0.00 0.00 0.00 98 960.6
20260905195349 52 237 3.5 7.0 0.00 0.00 0.00 97 960.5
20260905194849 52 236 4.3 7.0 0.00 0.00 0.00 96 960.5
20260905194349 52 229 4.3 7.0 0.00 0.00 0.00 94 960.4
20260905193849 52 233 4.3 7.0 0.00 0.00 0.00 91 960.4
20260905193348 52 236 4.3 7.0 0.00 0.00 0.00 90 960.3
20260905192848 52 206 3.5 7.0 0.00 0.00 0.00 91 960.4
20260905192348 53 234 3.5 7.0 0.00 0.00 0.00 93 960.4
20260905191848 53 231 4.3 7.0 0.00 0.00 0.00 91 960.3
20260905191348 53 236 4.3 5.2 0.00 0.00 0.00 90 960.3
20260905190848 53 236 3.5 5.2 0.00 0.00 0.00 89 960.1
20260905190348 53 237 3.5 5.2 0.00 0.00 0.00 88 960.1
20260905185848 53 234 3.5 5.2 0.00 0.00 0.00 89 960.1
20260905185348 53 238 3.5 5.2 0.00 0.00 0.00 91 959.9
20260905184848 53 236 3.5 4.3 0.00 0.00 0.00 92 960.0
20260905184348 52 240 2.6 4.3 0.00 0.00 0.00 91 960.0
20260905183848 53 240 2.6 3.5 0.00 0.00 0.00 91 959.8
20260905183348 53 236 2.6 3.5 0.00 0.00 0.00 89 959.8
20260905182848 53 235 2.6 3.5 0.00 0.00 0.00 89 959.8
20260905182348 53 238 2.6 4.3 0.00 0.00 0.00 89 959.6
20260905181848 53 240 2.6 4.3 0.00 0.00 0.00 89 959.6
20260905181348 53 246 2.6 3.5 0.00 0.00 0.00 89 959.7
20260905180847 53 231 2.6 3.5 0.00 0.00 0.00 91 959.5
20260905180347 53 234 1.7 3.5 0.00 0.00 0.00 92 959.5
20260905175847 53 238 2.6 3.5 0.00 0.00 0.00 92 959.4
20260905175347 53 234 2.6 3.5 0.00 0.00 0.00 91 959.4
20260905174847 53 236 2.6 3.5 0.00 0.00 0.00 90 959.3
20260905174347 53 239 1.7 3.5 0.00 0.00 0.00 89 959.3
20260905173847 54 236 1.7 2.6 0.00 0.00 0.00 88 959.2
20260905173347 54 249 1.7 2.6 0.00 0.00 0.00 86 959.1
20260905172847 54 249 1.7 2.6 0.00 0.00 0.00 85 959.0
20260905172347 54 250 1.7 2.6 0.00 0.00 0.00 85 959.1
20260905171847 54 246 1.7 1.7 0.00 0.00 0.00 86 959.0
20260905171347 55 241 1.7 2.6 0.00 0.00 0.00 85 958.9
20260905170847 55 239 1.7 3.5 0.00 0.00 0.00 84 958.8
20260905170347 55 250 1.7 3.5 0.00 0.00 0.00 83 958.8
20260905165847 55 247 1.7 3.5 0.00 0.00 0.00 82 958.7
20260905165347 55 250 1.7 3.5 0.00 0.00 0.00 84 958.6
20260905164847 56 244 1.7 3.5 0.00 0.00 0.00 81 958.5
20260905164347 56 246 1.7 5.2 0.00 0.00 0.00 83 958.4
20260905163847 56 279 2.6 5.2 0.00 0.00 0.00 82 958.4
20260905163346 56 218 2.6 5.2 0.00 0.00 0.00 81 958.5
20260905162846 56 238 1.7 4.3 0.00 0.00 0.00 81 958.5
20260905162346 56 235 1.7 4.3 0.00 0.00 0.00 82 958.3
20260905161846 56 266 1.7 4.3 0.00 0.00 0.00 80 958.2
20260905161346 56 239 2.6 4.3 0.00 0.00 0.00 81 958.0
20260905160846 56 241 2.6 4.3 0.00 0.00 0.00 83 958.0
20260905160346 56 274 2.6 4.3 0.00 0.00 0.00 81 958.1
20260905155846 56 293 2.6 5.2 0.00 0.00 0.00 82 958.0
20260905155346 56 299 2.6 5.2 0.00 0.00 0.00 84 958.0
20260905154846 56 240 2.6 5.2 0.00 0.00 0.00 85 958.0
20260905154346 56 203 2.6 5.2 0.00 0.00 0.00 85 958.0
20260905153846 56 259 3.5 7.0 0.00 0.00 0.00 87 958.0
20260905153346 56 270 3.5 7.0 0.00 0.00 0.00 85 958.0
20260905152846 56 308 3.5 6.1 0.00 0.00 0.00 85 957.9
20260905152346 56 298 3.5 6.1 0.00 0.00 0.00 84 957.8
20260905151846 56 233 3.5 6.1 0.00 0.00 0.00 85 957.8
20260905151346 56 280 3.5 7.0 0.00 0.00 0.00 84 957.8
20260905150845 56 255 3.5 7.0 0.00 0.00 0.00 87 957.8
20260905150345 56 306 2.6 6.1 0.00 0.00 0.00 83 957.7
20260905145845 57 230 2.6 6.1 0.00 0.00 0.00 84 957.7
20260905145345 56 307 2.6 4.3 0.00 0.00 0.00 81 957.7
20260905144845 56 255 2.6 4.3 0.00 0.00 0.00 85 957.7
20260905144345 56 277 2.6 7.0 0.00 0.00 0.00 82 957.6
20260905143845 56 315 2.6 7.0 0.00 0.00 0.00 80 957.7
20260905143345 56 277 2.6 5.2 0.00 0.00 0.00 79 957.5
20260905142845 56 313 2.6 7.0 0.00 0.00 0.00 81 957.4
20260905142345 55 272 2.6 7.0 0.00 0.00 0.00 83 957.4
20260905141845 56 268 3.5 6.1 0.00 0.00 0.00 81 957.2
20260905141345 57 323 3.5 6.1 0.00 0.00 0.00 77 957.5
20260905140845 58 299 2.6 8.7 0.00 0.00 0.00 74 957.2
20260905140345 60 274 1.7 9.6 0.00 0.00 0.00 76 957.1
20260905135844 60 242 2.6 9.6 0.00 0.00 0.00 78 957.1
20260905135344 60 141 1.7 7.0 0.00 0.00 0.00 76 957.1
20260905134844 61 216 1.7 5.2 0.00 0.00 0.00 72 957.1
20260905134344 60 136 1.7 5.2 0.00 0.00 0.00 76 956.9
20260905133844 58 234 1.7 4.3 0.00 0.00 0.00 77 956.9
20260905133344 58 272 1.7 4.3 0.00 0.00 0.00 81 957.0
20260905132844 58 329 1.7 4.3 0.00 0.00 0.00 80 956.8
20260905132345 58 164 1.7 7.0 0.00 0.00 0.00 84 956.9
20260905131844 58 262 1.7 7.0 0.00 0.00 0.00 80 956.9
20260905131344 59 81 1.7 6.1 0.00 0.00 0.00 81 957.0
20260905130844 58 120 2.6 7.8 0.00 0.00 0.00 83 957.0
20260905130344 57 255 3.5 7.8 0.00 0.00 0.00 81 956.9
20260905125844 57 255 2.6 7.0 0.00 0.00 0.00 81 956.8
20260905125344 56 282 3.5 7.0 0.00 0.00 0.00 85 956.9
20260905124844 56 247 3.5 7.8 0.00 0.00 0.00 86 956.8
20260905124344 55 249 3.5 9.6 0.00 0.00 0.00 91 956.9
20260905123843 54 247 3.5 9.6 0.00 0.00 0.00 91 956.8
20260905123343 55 243 3.5 8.7 0.00 0.00 0.00 93 956.8
20260905122843 54 260 3.5 6.1 0.00 0.00 0.00 96 956.6
20260905122343 54 295 2.6 6.1 0.00 0.00 0.00 94 956.6
20260905121843 53 268 2.6 6.1 0.00 0.00 0.00 95 956.6
20260905121343 54 300 2.6 5.2 0.00 0.00 0.00 95 956.6
20260905120843 54 286 2.6 5.2 0.00 0.00 0.00 93 956.5
20260905120343 55 283 2.6 6.1 0.00 0.00 0.00 88 956.5
20260905115843 56 282 2.6 6.1 0.00 0.00 0.00 80 956.5
20260905115343 57 239 1.7 6.1 0.00 0.00 0.00 76 956.6
20260905114843 58 222 1.7 5.2 0.00 0.00 0.00 78 956.5
20260905114343 60 211 0.9 4.3 0.00 0.00 0.00 80 956.6